World > North America > United States > Ohio   City of Dayton, OH
Hourly regional weather for Dayton, OhioDayton, Ohio Regional Hourly Weather

Dayton, Ohio Regional Weather

regional weather dayton, ohHOURLY REGIONAL WEATHER FOR DAYTON, OH
Lat: 39.78N, Lon: 84.2W 
Web Search
Dayton Weather Warning NWS WEATHER ALERT FOR THE DAYTON, OH AREA - Issued: 506 AM EST Mon Dec 6 2021 Dayton Weather Warning  

Our weather pages are very print friendly and they make great conversation starters.

Feedback


°F Click to change Dayton hourly weather to Imperial units.Click to change Dayton hourly weather to Metric units. °C
Dayton Weather Map
UTC Time: 12/6/2021, 14:09
Your Time:

Dayton, OH Regional Weather

Expires:202112061500;;999539
ASUS41 KCLE 061402
RWRCLE
OHIO REGIONAL WEATHER ROUNDUP
NATIONAL WEATHER SERVICE CLEVELAND, OH
900 AM EST MON DEC 06 2021

NOTE: "FAIR" INDICATES FEW OR NO CLOUDS BELOW 12,000 FEET WITH NO
SIGNIFICANT WEATHER AND/OR OBSTRUCTIONS TO VISIBILITY.


OHZ042-051>053-060>062-070>072-077>081-061500-
  SOUTHWEST OHIO
  
CITY           SKY/WX    TMP DP  RH WIND       PRES   REMARKS
CINC-COVINGTON LGT RAIN  41  34  76 W23G29    29.84R                  
CINC-LUNKEN    LGT RAIN  44  37  76 NW14G22   29.83S                  
HAMILTON       LGT RAIN  42  34  73 NW14      29.85R                  
DAYTON         CLOUDY    40  29  64 W18G26    29.81R                  
WRIGHT-PAT AFB CLOUDY    41  31  68 W12G20    29.80R                  
DAYTON GENERAL CLOUDY    42  33  70 W12       29.80R                  
WILMINGTON     LGT RAIN  42  32  67 W16G24    29.78R                  
$$


SKY/WX - Weather  TMP - Temperature  DP - Dew Point  RH - Relative Humidity
WIND - Wind Direction/Speed PRES - Barometric Pressure VSB - Visibility
WCI - Wind Chill Index E13G22 Wind - East Wind 13 mph/Gusts of 22 mph